Tracking 31027 objects as of 19-Jul-2025
HD Live streaming from Space Station
objects crossing your sky now

SL-16 DEB

Track SL-16 DEB now!
10-day predictions


NORAD ID: 22394
Int'l Code: 1992-093CK
Perigee: 813.3 km
Apogee: 919.3 km
Inclination: 71.3 °
Period: 102.1 minutes
Semi major axis: 7237 km
RCS: 0.4489 m2 (medium)
Launch date: December 25, 1992
Source: Commonwealth of Independent States (former USSR) (CIS)
Launch site: TYURATAM MISSILE AND SPACE COMPLEX (TTMTR)

Note: This is SATELLITE DEBRIS
Your satellite tracking list
Your tracking list is empty




NASA's NSSDC Master Catalog

Two Line Element Set (TLE):
1 22394U 92093CK  25199.83106447  .00000400  00000-0  24575-3 0  9992
2 22394  71.2746 248.2937 0073213 209.2979 150.4029 14.10057169664155
Source of the keplerian elements: AFSPC